Precipitable_Water
0.35 0.36 0.38 0.39 0.41 0.43 0.42 0.40 0.38 0.37 0.38 0.41 0.43 0.44 0.46 0.47 0.48 0.48 0.50 0.50 0.50 0.50 0.51 0.49 0.50 0.50 0.50 0.50 0.50 0.50 0.50 0.43 0.43 0.41 0.39 0.40 0.41 0.43 0.43 0.44 0.43 0.43 0.40 0.36 0.31 0.31 0.28 0.27 0.26 0.28 0.27 0.25 0.25 0.24 0.28 0.29 0.30 0.28 0.19 0.16 0.15 0.15 0.15 0.16 0.18 0.21 0.24 0.23 0.25 0.28 0.27 0.26 0.26 0.32 0.35 0.33 0.28 0.26 0.27 0.29 0.34 0.38 0.39 0.42 0.46 0.51 0.53 0.49
0.36 0.37 0.38 0.38 0.38 0.39 0.41 0.41 0.41 0.42 0.44 0.45 0.46 0.48 0.48 0.49 0.50 0.51 0.50 0.51 0.51 0.51 0.51 0.51 0.50 0.50 0.50 0.50 0.52 0.50 0.48 0.43 0.40 0.39 0.39 0.41 0.42 0.44 0.44 0.42 0.42 0.40 0.38 0.32 0.31 0.33 0.30 0.28 0.28 0.29 0.27 0.24 0.30 0.26 0.32 0.30 0.35 0.27 0.25 0.21 0.15 0.18 0.17 0.20 0.22 0.22 0.21 0.20 0.23 0.26 0.27 0.27 0.28 0.32 0.33 0.27 0.25 0.23 0.23 0.26 0.31 0.33 0.39 0.43 0.47 0.49 0.48 0.45
0.38 0.38 0.38 0.38 0.38 0.39 0.39 0.40 0.41 0.43 0.45 0.47 0.49 0.50 0.51 0.50 0.51 0.51 0.52 0.53 0.53 0.53 0.52 0.50 0.50 0.49 0.47 0.48 0.50 0.47 0.43 0.39 0.38 0.35 0.37 0.42 0.40 0.40 0.40 0.39 0.38 0.38 0.35 0.31 0.32 0.32 0.29 0.28 0.28 0.28 0.26 0.24 0.25 0.23 0.28 0.27 0.31 0.30 0.24 0.20 0.19 0.21 0.20 0.23 0.25 0.25 0.26 0.25 0.25 0.26 0.27 0.28 0.32 0.34 0.36 0.26 0.22 0.23 0.22 0.23 0.27 0.29 0.32 0.38 0.44 0.47 0.47 0.45
0.42 0.41 0.41 0.41 0.41 0.41 0.42 0.43 0.43 0.44 0.46 0.47 0.49 0.50 0.51 0.51 0.51 0.51 0.52 0.52 0.52 0.51 0.50 0.48 0.47 0.47 0.45 0.45 0.48 0.46 0.41 0.37 0.29 0.34 0.38 0.38 0.38 0.39 0.38 0.36 0.36 0.36 0.36 0.35 0.35 0.32 0.30 0.28 0.25 0.25 0.22 0.21 0.22 0.22 0.23 0.26 0.24 0.26 0.24 0.20 0.20 0.22 0.21 0.23 0.24 0.24 0.24 0.24 0.24 0.25 0.27 0.25 0.29 0.30 0.28 0.26 0.24 0.25 0.27 0.30 0.29 0.31 0.35 0.39 0.44 0.46 0.47 0.46
0.45 0.45 0.45 0.44 0.44 0.45 0.46 0.47 0.48 0.48 0.48 0.49 0.49 0.49 0.50 0.51 0.51 0.51 0.51 0.50 0.48 0.48 0.46 0.46 0.46 0.46 0.44 0.45 0.47 0.44 0.36 0.27 0.27 0.33 0.36 0.36 0.36 0.35 0.35 0.35 0.34 0.33 0.31 0.30 0.32 0.30 0.28 0.24 0.23 0.22 0.20 0.18 0.19 0.19 0.19 0.23 0.24 0.23 0.21 0.21 0.21 0.21 0.19 0.21 0.22 0.23 0.23 0.23 0.21 0.22 0.21 0.21 0.27 0.26 0.25 0.27 0.23 0.24 0.28 0.31 0.34 0.37 0.40 0.42 0.44 0.46 0.47 0.46
0.47 0.47 0.47 0.48 0.48 0.48 0.48 0.48 0.48 0.48 0.48 0.49 0.50 0.50 0.51 0.52 0.52 0.51 0.49 0.48 0.46 0.45 0.45 0.45 0.45 0.43 0.43 0.44 0.46 0.38 0.30 0.17 0.30 0.31 0.34 0.34 0.34 0.33 0.33 0.34 0.33 0.32 0.31 0.26 0.25 0.25 0.24 0.22 0.21 0.18 0.18 0.17 0.16 0.15 0.17 0.20 0.23 0.18 0.20 0.21 0.23 0.23 0.21 0.22 0.21 0.21 0.20 0.19 0.18 0.19 0.24 0.25 0.23 0.23 0.25 0.25 0.25 0.28 0.33 0.34 0.36 0.39 0.42 0.44 0.45 0.42 0.40 0.40
0.51 0.50 0.51 0.51 0.51 0.50 0.49 0.48 0.47 0.47 0.48 0.48 0.48 0.48 0.48 0.48 0.47 0.47 0.46 0.46 0.45 0.44 0.43 0.43 0.42 0.41 0.38 0.40 0.44 0.38 0.28 0.28 0.31 0.31 0.34 0.34 0.34 0.33 0.33 0.33 0.33 0.30 0.28 0.24 0.23 0.22 0.22 0.20 0.20 0.19 0.18 0.18 0.19 0.18 0.19 0.19 0.20 0.19 0.18 0.21 0.22 0.22 0.20 0.21 0.21 0.22 0.22 0.20 0.20 0.22 0.25 0.22 0.23 0.20 0.25 0.25 0.28 0.31 0.34 0.35 0.36 0.38 0.39 0.41 0.39 0.40 0.39 0.39
0.52 0.52 0.51 0.51 0.50 0.48 0.46 0.46 0.45 0.45 0.45 0.45 0.46 0.47 0.47 0.47 0.46 0.45 0.44 0.43 0.43 0.43 0.41 0.40 0.39 0.37 0.36 0.33 0.31 0.30 0.35 0.30 0.31 0.34 0.34 0.35 0.35 0.34 0.34 0.34 0.32 0.29 0.26 0.23 0.23 0.21 0.21 0.19 0.19 0.21 0.19 0.18 0.20 0.19 0.23 0.23 0.23 0.20 0.19 0.21 0.22 0.22 0.21 0.21 0.21 0.20 0.20 0.21 0.22 0.22 0.20 0.21 0.23 0.22 0.24 0.24 0.28 0.30 0.32 0.33 0.35 0.36 0.37 0.38 0.38 0.38 0.39 0.38
0.53 0.52 0.51 0.49 0.47 0.46 0.46 0.45 0.44 0.44 0.45 0.45 0.46 0.46 0.46 0.47 0.45 0.44 0.43 0.42 0.41 0.40 0.39 0.39 0.39 0.40 0.41 0.38 0.34 0.30 0.27 0.32 0.35 0.35 0.36 0.35 0.34 0.34 0.34 0.30 0.32 0.28 0.27 0.27 0.26 0.24 0.22 0.20 0.20 0.21 0.18 0.18 0.20 0.18 0.19 0.19 0.18 0.23 0.22 0.22 0.21 0.20 0.21 0.20 0.20 0.20 0.20 0.21 0.21 0.19 0.20 0.22 0.23 0.25 0.23 0.26 0.28 0.31 0.32 0.32 0.33 0.34 0.35 0.35 0.36 0.37 0.37 0.37
0.57 0.56 0.53 0.51 0.49 0.47 0.46 0.45 0.45 0.45 0.44 0.43 0.43 0.43 0.43 0.42 0.42 0.42 0.42 0.41 0.41 0.41 0.43 0.43 0.43 0.43 0.42 0.36 0.37 0.28 0.30 0.35 0.35 0.36 0.35 0.34 0.33 0.32 0.31 0.30 0.30 0.28 0.26 0.26 0.26 0.25 0.22 0.21 0.20 0.22 0.22 0.19 0.20 0.17 0.20 0.19 0.17 0.24 0.22 0.22 0.21 0.21 0.21 0.21 0.20 0.20 0.20 0.20 0.20 0.18 0.19 0.21 0.24 0.22 0.19 0.27 0.29 0.31 0.31 0.31 0.32 0.32 0.31 0.33 0.33 0.34 0.34 0.34
0.55 0.53 0.51 0.49 0.46 0.45 0.45 0.45 0.45 0.44 0.42 0.40 0.38 0.37 0.39 0.40 0.41 0.42 0.43 0.44 0.46 0.46 0.47 0.46 0.45 0.45 0.36 0.39 0.30 0.24 0.33 0.33 0.36 0.36 0.35 0.34 0.31 0.29 0.28 0.29 0.28 0.26 0.26 0.25 0.25 0.26 0.25 0.24 0.24 0.22 0.20 0.18 0.20 0.18 0.19 0.20 0.24 0.22 0.21 0.20 0.19 0.18 0.19 0.20 0.20 0.20 0.20 0.19 0.21 0.19 0.19 0.21 0.22 0.22 0.21 0.25 0.28 0.30 0.28 0.28 0.29 0.29 0.29 0.30 0.31 0.32 0.32 0.33
0.50 0.48 0.47 0.46 0.45 0.45 0.45 0.44 0.43 0.41 0.38 0.35 0.34 0.36 0.39 0.40 0.41 0.42 0.42 0.44 0.45 0.46 0.46 0.46 0.44 0.43 0.40 0.34 0.28 0.26 0.34 0.35 0.36 0.35 0.34 0.33 0.30 0.31 0.31 0.31 0.29 0.27 0.26 0.24 0.25 0.27 0.28 0.27 0.26 0.22 0.17 0.27 0.19 0.22 0.22 0.27 0.25 0.23 0.22 0.17 0.18 0.17 0.15 0.16 0.16 0.18 0.19 0.19 0.21 0.21 0.19 0.18 0.20 0.19 0.24 0.26 0.28 0.28 0.28 0.28 0.28 0.28 0.29 0.29 0.30 0.30 0.31 0.31
0.48 0.46 0.45 0.45 0.45 0.44 0.42 0.41 0.40 0.38 0.35 0.33 0.35 0.38 0.39 0.38 0.39 0.39 0.39 0.38 0.43 0.43 0.41 0.41 0.41 0.42 0.39 0.30 0.30 0.34 0.35 0.35 0.35 0.34 0.33 0.32 0.30 0.30 0.31 0.31 0.30 0.30 0.29 0.27 0.26 0.27 0.28 0.26 0.25 0.21 0.23 0.21 0.20 0.16 0.22 0.24 0.23 0.22 0.20 0.17 0.15 0.15 0.15 0.19 0.20 0.20 0.19 0.21 0.22 0.22 0.14 0.17 0.20 0.22 0.25 0.27 0.27 0.27 0.27 0.27 0.28 0.28 0.28 0.29 0.29 0.29 0.30 0.31
0.49 0.46 0.43 0.42 0.42 0.41 0.39 0.37 0.36 0.35 0.34 0.34 0.36 0.37 0.36 0.37 0.38 0.39 0.39 0.37 0.40 0.42 0.39 0.43 0.44 0.41 0.37 0.28 0.31 0.33 0.34 0.34 0.35 0.31 0.29 0.31 0.28 0.27 0.29 0.30 0.30 0.29 0.29 0.26 0.26 0.26 0.25 0.26 0.24 0.22 0.24 0.19 0.17 0.27 0.19 0.19 0.20 0.15 0.17 0.18 0.15 0.16 0.17 0.22 0.22 0.22 0.21 0.23 0.24 0.23 0.15 0.17 0.21 0.23 0.26 0.28 0.28 0.27 0.26 0.27 0.28 0.28 0.28 0.29 0.29 0.29 0.29 0.30
0.43 0.40 0.38 0.38 0.39 0.38 0.36 0.34 0.35 0.36 0.35 0.35 0.35 0.35 0.36 0.36 0.40 0.39 0.40 0.42 0.41 0.41 0.44 0.45 0.43 0.44 0.30 0.28 0.32 0.33 0.35 0.32 0.30 0.28 0.29 0.27 0.25 0.25 0.26 0.28 0.28 0.28 0.28 0.27 0.25 0.27 0.27 0.26 0.24 0.20 0.18 0.27 0.26 0.21 0.17 0.18 0.19 0.19 0.16 0.15 0.20 0.18 0.22 0.23 0.24 0.23 0.21 0.25 0.26 0.23 0.18 0.19 0.23 0.25 0.29 0.31 0.31 0.30 0.28 0.29 0.29 0.30 0.30 0.31 0.31 0.31 0.32 0.32
0.39 0.36 0.36 0.36 0.35 0.34 0.33 0.35 0.36 0.37 0.37 0.36 0.33 0.34 0.36 0.38 0.41 0.41 0.41 0.44 0.42 0.44 0.49 0.45 0.40 0.36 0.28 0.24 0.28 0.35 0.31 0.26 0.26 0.29 0.29 0.28 0.25 0.24 0.26 0.25 0.27 0.27 0.26 0.25 0.26 0.25 0.25 0.24 0.19 0.21 0.22 0.24 0.21 0.19 0.18 0.17 0.18 0.20 0.18 0.16 0.17 0.21 0.22 0.23 0.25 0.27 0.27 0.25 0.25 0.22 0.19 0.21 0.22 0.25 0.27 0.28 0.28 0.28 0.27 0.27 0.27 0.28 0.28 0.29 0.29 0.29 0.30 0.30
0.36 0.35 0.35 0.35 0.35 0.35 0.35 0.35 0.36 0.39 0.38 0.34 0.33 0.33 0.37 0.38 0.39 0.42 0.41 0.43 0.43 0.48 0.43 0.34 0.39 0.40 0.26 0.30 0.32 0.24 0.22 0.25 0.29 0.27 0.26 0.25 0.24 0.25 0.25 0.22 0.21 0.22 0.25 0.25 0.26 0.25 0.25 0.21 0.24 0.24 0.24 0.19 0.20 0.20 0.15 0.15 0.15 0.20 0.22 0.19 0.21 0.19 0.21 0.19 0.24 0.26 0.25 0.24 0.21 0.24 0.21 0.22 0.23 0.26 0.28 0.29 0.29 0.28 0.27 0.27 0.27 0.28 0.28 0.28 0.29 0.29 0.29 0.30
0.36 0.35 0.35 0.35 0.34 0.35 0.36 0.36 0.37 0.37 0.36 0.33 0.32 0.33 0.33 0.37 0.36 0.42 0.39 0.45 0.45 0.45 0.37 0.40 0.37 0.30 0.29 0.27 0.19 0.18 0.22 0.22 0.24 0.23 0.22 0.22 0.24 0.25 0.24 0.21 0.22 0.22 0.23 0.21 0.24 0.20 0.21 0.18 0.21 0.17 0.22 0.22 0.21 0.19 0.14 0.11 0.15 0.15 0.15 0.15 0.16 0.18 0.19 0.17 0.18 0.23 0.22 0.23 0.20 0.21 0.20 0.21 0.23 0.26 0.27 0.28 0.29 0.28 0.27 0.27 0.28 0.28 0.28 0.28 0.29 0.29 0.29 0.30
0.36 0.34 0.34 0.35 0.37 0.37 0.37 0.36 0.34 0.34 0.35 0.34 0.37 0.37 0.34 0.36 0.38 0.36 0.29 0.40 0.31 0.26 0.22 0.21 0.21 0.15 0.13 0.18 0.21 0.21 0.22 0.23 0.25 0.23 0.18 0.20 0.22 0.24 0.26 0.25 0.25 0.21 0.18 0.18 0.17 0.18 0.19 0.18 0.20 0.17 0.15 0.18 0.18 0.18 0.16 0.16 0.17 0.16 0.16 0.15 0.15 0.13 0.13 0.13 0.19 0.23 0.22 0.19 0.18 0.19 0.18 0.20 0.22 0.23 0.25 0.25 0.26 0.25 0.25 0.26 0.26 0.26 0.26 0.26 0.27 0.27 0.28 0.28
0.35 0.35 0.37 0.38 0.38 0.37 0.36 0.35 0.33 0.31 0.34 0.30 0.33 0.37 0.32 0.25 0.26 0.26 0.25 0.28 0.24 0.22 0.20 0.21 0.23 0.20 0.20 0.19 0.18 0.23 0.26 0.26 0.19 0.20 0.19 0.21 0.20 0.21 0.21 0.22 0.21 0.21 0.19 0.16 0.18 0.20 0.22 0.15 0.14 0.14 0.16 0.18 0.19 0.20 0.19 0.19 0.18 0.17 0.16 0.14 0.12 0.12 0.14 0.19 0.20 0.22 0.24 0.20 0.19 0.19 0.20 0.21 0.22 0.23 0.23 0.24 0.25 0.24 0.24 0.24 0.24 0.24 0.24 0.25 0.25 0.26 0.26 0.27
0.37 0.39 0.38 0.37 0.37 0.36 0.34 0.31 0.29 0.28 0.32 0.33 0.33 0.26 0.13 0.13 0.11 0.12 0.19 0.22 0.28 0.27 0.22 0.21 0.20 0.18 0.17 0.20 0.21 0.22 0.17 0.17 0.20 0.17 0.19 0.25 0.22 0.20 0.15 0.19 0.17 0.15 0.17 0.18 0.16 0.23 0.22 0.15 0.15 0.16 0.16 0.16 0.17 0.18 0.18 0.17 0.16 0.14 0.13 0.12 0.11 0.13 0.13 0.19 0.21 0.24 0.26 0.21 0.19 0.21 0.20 0.20 0.21 0.23 0.24 0.25 0.24 0.23 0.24 0.24 0.24 0.24 0.25 0.25 0.25 0.25 0.26 0.27
0.38 0.37 0.36 0.35 0.35 0.32 0.31 0.30 0.31 0.29 0.33 0.36 0.25 0.17 0.18 0.19 0.29 0.32 0.31 0.15 0.24 0.30 0.28 0.22 0.21 0.18 0.22 0.21 0.24 0.26 0.23 0.15 0.15 0.16 0.21 0.23 0.19 0.15 0.17 0.18 0.16 0.14 0.20 0.16 0.13 0.15 0.14 0.13 0.15 0.15 0.15 0.16 0.16 0.16 0.18 0.15 0.12 0.13 0.13 0.14 0.13 0.15 0.18 0.20 0.22 0.23 0.24 0.21 0.19 0.20 0.18 0.19 0.21 0.22 0.24 0.24 0.24 0.24 0.25 0.25 0.25 0.25 0.24 0.25 0.25 0.26 0.26 0.27
0.38 0.37 0.34 0.33 0.31 0.30 0.29 0.31 0.31 0.28 0.21 0.18 0.18 0.19 0.20 0.30 0.37 0.40 0.33 0.21 0.22 0.30 0.25 0.20 0.19 0.17 0.19 0.22 0.23 0.28 0.17 0.14 0.13 0.16 0.18 0.21 0.18 0.17 0.17 0.16 0.14 0.12 0.12 0.14 0.10 0.12 0.12 0.14 0.15 0.16 0.18 0.16 0.16 0.16 0.15 0.15 0.13 0.12 0.13 0.13 0.13 0.16 0.14 0.12 0.20 0.21 0.21 0.18 0.17 0.18 0.16 0.18 0.21 0.23 0.23 0.25 0.25 0.26 0.27 0.27 0.27 0.27 0.26 0.26 0.26 0.27 0.27 0.28
0.38 0.36 0.33 0.30 0.29 0.27 0.29 0.28 0.34 0.28 0.24 0.21 0.20 0.22 0.31 0.35 0.36 0.37 0.28 0.22 0.18 0.23 0.24 0.22 0.23 0.18 0.19 0.18 0.24 0.25 0.18 0.16 0.16 0.14 0.22 0.20 0.16 0.20 0.17 0.15 0.12 0.11 0.10 0.14 0.16 0.14 0.12 0.14 0.18 0.17 0.17 0.17 0.15 0.16 0.14 0.13 0.11 0.12 0.12 0.12 0.13 0.14 0.16 0.15 0.15 0.18 0.20 0.20 0.19 0.17 0.16 0.16 0.19 0.19 0.22 0.26 0.28 0.27 0.27 0.27 0.27 0.27 0.28 0.28 0.29 0.29 0.29 0.29
0.37 0.34 0.31 0.28 0.26 0.27 0.29 0.32 0.26 0.27 0.35 0.26 0.23 0.31 0.33 0.34 0.33 0.34 0.31 0.21 0.23 0.20 0.30 0.27 0.25 0.20 0.23 0.28 0.27 0.21 0.20 0.19 0.18 0.21 0.23 0.20 0.16 0.17 0.15 0.20 0.17 0.11 0.12 0.15 0.17 0.15 0.12 0.18 0.20 0.16 0.17 0.19 0.17 0.15 0.15 0.13 0.09 0.10 0.13 0.13 0.14 0.15 0.14 0.14 0.15 0.14 0.12 0.13 0.17 0.16 0.12 0.13 0.19 0.21 0.21 0.25 0.25 0.25 0.26 0.25 0.26 0.27 0.28 0.28 0.28 0.29 0.30 0.31
0.35 0.33 0.31 0.28 0.27 0.28 0.35 0.29 0.24 0.32 0.27 0.21 0.24 0.31 0.34 0.33 0.35 0.35 0.31 0.18 0.14 0.15 0.24 0.13 0.25 0.15 0.30 0.18 0.23 0.22 0.22 0.12 0.20 0.22 0.25 0.21 0.25 0.18 0.19 0.12 0.17 0.11 0.13 0.15 0.15 0.14 0.13 0.18 0.17 0.15 0.16 0.16 0.16 0.14 0.15 0.13 0.10 0.09 0.11 0.16 0.16 0.14 0.14 0.14 0.13 0.13 0.10 0.09 0.15 0.21 0.12 0.10 0.18 0.19 0.21 0.23 0.24 0.24 0.26 0.26 0.27 0.28 0.28 0.29 0.29 0.30 0.30 0.30
0.35 0.32 0.31 0.29 0.29 0.29 0.28 0.16 0.29 0.33 0.23 0.21 0.31 0.32 0.32 0.33 0.38 0.34 0.24 0.14 0.12 0.14 0.14 0.19 0.21 0.18 0.28 0.21 0.20 0.23 0.07 0.10 0.22 0.23 0.23 0.22 0.17 0.26 0.15 0.11 0.14 0.17 0.18 0.20 0.15 0.09 0.17 0.14 0.14 0.14 0.12 0.13 0.12 0.10 0.13 0.14 0.11 0.09 0.16 0.17 0.17 0.15 0.14 0.14 0.14 0.14 0.13 0.17 0.18 0.19 0.17 0.13 0.13 0.18 0.23 0.25 0.24 0.25 0.25 0.27 0.28 0.28 0.29 0.29 0.29 0.30 0.30 0.31
0.36 0.34 0.30 0.29 0.32 0.30 0.22 0.28 0.28 0.19 0.18 0.27 0.33 0.33 0.34 0.35 0.38 0.31 0.22 0.08 0.05 0.20 0.12 0.19 0.18 0.28 0.23 0.24 0.21 0.15 0.14 0.19 0.13 0.18 0.26 0.22 0.20 0.20 0.16 0.12 0.12 0.13 0.16 0.15 0.06 0.14 0.15 0.12 0.14 0.12 0.13 0.12 0.11 0.13 0.16 0.17 0.13 0.13 0.17 0.18 0.16 0.15 0.15 0.15 0.15 0.14 0.16 0.15 0.12 0.16 0.20 0.15 0.15 0.19 0.24 0.26 0.23 0.24 0.25 0.27 0.27 0.29 0.29 0.29 0.30 0.30 0.31 0.31
0.37 0.34 0.32 0.30 0.35 0.35 0.33 0.25 0.26 0.18 0.28 0.32 0.35 0.34 0.35 0.37 0.30 0.22 0.15 0.06 0.09 0.21 0.28 0.14 0.29 0.20 0.19 0.21 0.15 0.18 0.18 0.18 0.12 0.20 0.24 0.22 0.20 0.19 0.12 0.13 0.16 0.16 0.18 0.14 0.10 0.15 0.18 0.16 0.16 0.16 0.13 0.12 0.14 0.16 0.18 0.18 0.13 0.16 0.19 0.17 0.17 0.16 0.16 0.16 0.16 0.16 0.16 0.14 0.10 0.15 0.20 0.15 0.15 0.19 0.21 0.25 0.23 0.23 0.25 0.27 0.28 0.29 0.29 0.30 0.30 0.31 0.31 0.31
0.38 0.34 0.34 0.31 0.34 0.27 0.32 0.35 0.24 0.29 0.34 0.35 0.33 0.34 0.36 0.28 0.20 0.14 0.07 0.04 0.15 0.10 0.17 0.18 0.15 0.13 0.19 0.13 0.12 0.14 0.14 0.15 0.18 0.21 0.22 0.16 0.16 0.16 0.21 0.18 0.13 0.14 0.10 0.14 0.15 0.15 0.18 0.24 0.24 0.17 0.14 0.16 0.16 0.16 0.17 0.17 0.17 0.21 0.17 0.14 0.14 0.13 0.15 0.17 0.17 0.17 0.15 0.11 0.14 0.18 0.20 0.19 0.13 0.18 0.20 0.21 0.22 0.26 0.27 0.28 0.29 0.29 0.29 0.29 0.29 0.29 0.29 0.30
0.38 0.36 0.36 0.32 0.22 0.27 0.31 0.24 0.28 0.32 0.35 0.35 0.35 0.31 0.30 0.23 0.10 0.08 0.04 0.07 0.18 0.16 0.17 0.13 0.12 0.20 0.14 0.11 0.08 0.12 0.15 0.15 0.14 0.17 0.14 0.16 0.13 0.14 0.14 0.18 0.14 0.13 0.10 0.10 0.11 0.13 0.19 0.20 0.17 0.18 0.22 0.19 0.19 0.14 0.18 0.19 0.21 0.17 0.14 0.13 0.12 0.11 0.13 0.14 0.15 0.17 0.11 0.10 0.15 0.18 0.18 0.18 0.13 0.18 0.22 0.25 0.27 0.28 0.27 0.26 0.27 0.26 0.26 0.26 0.27 0.28 0.29 0.29
0.38 0.38 0.39 0.31 0.28 0.30 0.18 0.17 0.28 0.35 0.35 0.35 0.29 0.20 0.24 0.07 0.07 0.05 0.06 0.17 0.09 0.10 0.12 0.11 0.16 0.16 0.14 0.16 0.11 0.10 0.11 0.14 0.15 0.15 0.13 0.13 0.12 0.10 0.12 0.09 0.11 0.05 0.05 0.07 0.07 0.11 0.13 0.14 0.17 0.21 0.21 0.18 0.15 0.12 0.12 0.15 0.16 0.15 0.14 0.12 0.09 0.08 0.09 0.07 0.11 0.08 0.09 0.10 0.14 0.18 0.18 0.16 0.17 0.21 0.23 0.24 0.26 0.28 0.29 0.28 0.27 0.26 0.26 0.26 0.26 0.26 0.26 0.26
0.37 0.39 0.42 0.34 0.31 0.26 0.28 0.30 0.34 0.34 0.36 0.34 0.27 0.27 0.13 0.05 0.04 0.08 0.08 0.10 0.08 0.15 0.11 0.19 0.13 0.15 0.14 0.13 0.10 0.11 0.16 0.11 0.15 0.15 0.18 0.15 0.13 0.13 0.15 0.13 0.13 0.10 0.05 0.08 0.08 0.08 0.10 0.15 0.16 0.16 0.17 0.18 0.16 0.11 0.10 0.10 0.14 0.14 0.12 0.12 0.10 0.08 0.08 0.06 0.08 0.09 0.09 0.11 0.15 0.15 0.18 0.13 0.18 0.20 0.25 0.25 0.27 0.29 0.29 0.30 0.29 0.27 0.26 0.26 0.25 0.24 0.24 0.24
0.38 0.38 0.36 0.35 0.33 0.31 0.31 0.34 0.33 0.36 0.35 0.31 0.23 0.11 0.08 0.05 0.05 0.12 0.10 0.10 0.09 0.18 0.18 0.14 0.14 0.15 0.12 0.10 0.11 0.12 0.08 0.15 0.14 0.13 0.15 0.13 0.12 0.10 0.12 0.14 0.14 0.11 0.10 0.10 0.07 0.08 0.05 0.06 0.11 0.14 0.12 0.19 0.16 0.15 0.15 0.13 0.15 0.14 0.17 0.15 0.13 0.12 0.09 0.06 0.08 0.07 0.08 0.11 0.12 0.16 0.14 0.14 0.15 0.19 0.26 0.27 0.28 0.29 0.30 0.29 0.30 0.28 0.27 0.26 0.24 0.23 0.23 0.22
0.35 0.35 0.39 0.36 0.34 0.32 0.33 0.36 0.39 0.41 0.36 0.26 0.13 0.08 0.05 0.05 0.08 0.07 0.09 0.11 0.13 0.15 0.14 0.19 0.11 0.10 0.09 0.12 0.13 0.13 0.12 0.10 0.14 0.14 0.12 0.12 0.10 0.11 0.11 0.12 0.14 0.14 0.13 0.07 0.10 0.11 0.08 0.08 0.13 0.18 0.17 0.19 0.15 0.18 0.20 0.16 0.14 0.15 0.15 0.15 0.11 0.11 0.15 0.09 0.11 0.11 0.11 0.10 0.10 0.15 0.14 0.18 0.18 0.23 0.25 0.27 0.28 0.28 0.29 0.28 0.28 0.26 0.25 0.23 0.22 0.22 0.21 0.21
0.36 0.35 0.39 0.26 0.24 0.28 0.34 0.37 0.39 0.40 0.32 0.12 0.08 0.06 0.06 0.09 0.07 0.12 0.10 0.18 0.16 0.11 0.11 0.16 0.10 0.08 0.07 0.08 0.12 0.10 0.17 0.12 0.12 0.13 0.12 0.13 0.14 0.12 0.15 0.15 0.14 0.15 0.12 0.09 0.12 0.08 0.09 0.07 0.13 0.15 0.19 0.18 0.17 0.19 0.18 0.19 0.09 0.13 0.14 0.10 0.12 0.17 0.16 0.13 0.12 0.13 0.12 0.11 0.09 0.16 0.14 0.16 0.21 0.22 0.23 0.23 0.24 0.25 0.26 0.25 0.23 0.21 0.22 0.22 0.21 0.21 0.20 0.19
0.31 0.31 0.21 0.22 0.24 0.31 0.33 0.37 0.38 0.30 0.19 0.10 0.07 0.06 0.10 0.11 0.15 0.15 0.17 0.13 0.15 0.16 0.11 0.06 0.07 0.08 0.06 0.06 0.08 0.09 0.10 0.15 0.11 0.12 0.09 0.14 0.11 0.14 0.14 0.15 0.18 0.16 0.18 0.15 0.12 0.16 0.09 0.08 0.13 0.14 0.13 0.18 0.20 0.20 0.20 0.20 0.19 0.15 0.12 0.13 0.14 0.20 0.17 0.12 0.07 0.09 0.09 0.08 0.09 0.13 0.12 0.13 0.14 0.12 0.19 0.20 0.20 0.20 0.20 0.20 0.19 0.20 0.21 0.20 0.19 0.18 0.18 0.17
0.27 0.24 0.22 0.20 0.26 0.34 0.36 0.36 0.35 0.22 0.12 0.09 0.07 0.10 0.16 0.11 0.18 0.17 0.19 0.16 0.17 0.16 0.09 0.08 0.10 0.11 0.07 0.08 0.07 0.09 0.10 0.09 0.09 0.11 0.09 0.12 0.10 0.19 0.15 0.13 0.18 0.17 0.19 0.21 0.13 0.14 0.15 0.07 0.10 0.13 0.14 0.17 0.20 0.19 0.18 0.20 0.21 0.16 0.15 0.17 0.09 0.08 0.08 0.11 0.11 0.07 0.07 0.07 0.08 0.10 0.13 0.12 0.13 0.12 0.15 0.15 0.16 0.16 0.17 0.17 0.18 0.18 0.18 0.17 0.16 0.16 0.17 0.18
0.29 0.21 0.14 0.20 0.34 0.33 0.37 0.36 0.28 0.15 0.10 0.07 0.08 0.07 0.12 0.14 0.19 0.16 0.18 0.18 0.18 0.14 0.09 0.10 0.08 0.11 0.10 0.08 0.09 0.11 0.11 0.08 0.11 0.10 0.08 0.10 0.09 0.16 0.15 0.16 0.14 0.18 0.20 0.20 0.15 0.15 0.16 0.08 0.08 0.14 0.13 0.15 0.17 0.16 0.10 0.13 0.18 0.19 0.19 0.14 0.16 0.15 0.12 0.09 0.10 0.11 0.11 0.08 0.09 0.07 0.09 0.08 0.12 0.12 0.14 0.14 0.15 0.15 0.15 0.16 0.16 0.16 0.16 0.16 0.15 0.16 0.17 0.17
0.23 0.19 0.13 0.26 0.33 0.35 0.32 0.27 0.15 0.12 0.08 0.06 0.09 0.11 0.17 0.12 0.16 0.18 0.19 0.19 0.12 0.12 0.09 0.10 0.11 0.09 0.10 0.09 0.11 0.08 0.11 0.12 0.11 0.11 0.10 0.12 0.11 0.19 0.14 0.18 0.15 0.17 0.20 0.20 0.16 0.17 0.12 0.15 0.07 0.09 0.13 0.14 0.10 0.14 0.12 0.14 0.12 0.14 0.13 0.11 0.13 0.13 0.16 0.13 0.13 0.11 0.10 0.08 0.08 0.08 0.05 0.07 0.11 0.14 0.14 0.13 0.14 0.15 0.15 0.15 0.15 0.15 0.15 0.15 0.16 0.16 0.17 0.17
0.22 0.18 0.14 0.26 0.30 0.34 0.26 0.14 0.10 0.09 0.09 0.14 0.16 0.14 0.16 0.12 0.16 0.16 0.20 0.22 0.19 0.20 0.13 0.11 0.11 0.09 0.10 0.08 0.08 0.12 0.10 0.12 0.12 0.10 0.11 0.12 0.12 0.09 0.17 0.16 0.19 0.16 0.19 0.18 0.15 0.15 0.11 0.13 0.07 0.09 0.09 0.10 0.12 0.17 0.16 0.17 0.17 0.14 0.12 0.11 0.12 0.10 0.08 0.05 0.04 0.12 0.12 0.10 0.07 0.06 0.05 0.07 0.12 0.16 0.15 0.14 0.15 0.15 0.15 0.14 0.14 0.14 0.14 0.15 0.16 0.17 0.17 0.17
0.16 0.09 0.12 0.25 0.27 0.29 0.17 0.09 0.11 0.14 0.12 0.10 0.10 0.15 0.13 0.21 0.15 0.15 0.17 0.18 0.19 0.15 0.19 0.15 0.13 0.13 0.11 0.10 0.11 0.11 0.11 0.11 0.12 0.11 0.12 0.10 0.15 0.13 0.16 0.22 0.20 0.20 0.16 0.12 0.13 0.17 0.15 0.15 0.11 0.08 0.09 0.10 0.13 0.16 0.19 0.20 0.18 0.15 0.14 0.12 0.13 0.12 0.10 0.07 0.04 0.06 0.09 0.10 0.11 0.09 0.07 0.07 0.14 0.15 0.16 0.15 0.14 0.14 0.14 0.14 0.12 0.13 0.14 0.15 0.16 0.17 0.18 0.18
0.15 0.12 0.23 0.27 0.28 0.18 0.14 0.10 0.13 0.11 0.10 0.14 0.20 0.17 0.20 0.16 0.15 0.15 0.13 0.15 0.13 0.16 0.14 0.12 0.12 0.11 0.13 0.12 0.12 0.12 0.13 0.12 0.12 0.10 0.12 0.13 0.14 0.16 0.19 0.21 0.22 0.18 0.18 0.14 0.18 0.16 0.19 0.12 0.10 0.09 0.11 0.12 0.15 0.17 0.18 0.19 0.16 0.13 0.13 0.13 0.12 0.09 0.10 0.08 0.08 0.09 0.08 0.08 0.07 0.08 0.06 0.07 0.13 0.16 0.15 0.14 0.14 0.14 0.13 0.13 0.13 0.14 0.15 0.16 0.16 0.17 0.17 0.17
0.14 0.14 0.16 0.23 0.29 0.22 0.08 0.06 0.07 0.10 0.12 0.15 0.14 0.13 0.17 0.15 0.14 0.12 0.11 0.13 0.12 0.12 0.11 0.11 0.14 0.14 0.11 0.16 0.14 0.12 0.15 0.08 0.13 0.12 0.11 0.14 0.12 0.20 0.20 0.20 0.21 0.16 0.15 0.13 0.12 0.15 0.10 0.13 0.11 0.07 0.06 0.07 0.09 0.13 0.14 0.16 0.15 0.12 0.10 0.12 0.12 0.12 0.12 0.11 0.12 0.13 0.08 0.08 0.08 0.07 0.04 0.06 0.12 0.14 0.14 0.13 0.13 0.12 0.12 0.14 0.14 0.14 0.15 0.16 0.16 0.17 0.17 0.17
0.13 0.15 0.15 0.16 0.21 0.17 0.08 0.11 0.09 0.10 0.11 0.11 0.11 0.11 0.12 0.11 0.15 0.15 0.14 0.11 0.15 0.14 0.15 0.12 0.13 0.15 0.13 0.15 0.14 0.16 0.17 0.12 0.11 0.15 0.14 0.13 0.13 0.22 0.21 0.20 0.21 0.17 0.18 0.19 0.18 0.19 0.12 0.12 0.10 0.06 0.05 0.04 0.04 0.05 0.06 0.08 0.09 0.11 0.12 0.11 0.12 0.11 0.10 0.09 0.07 0.09 0.06 0.08 0.09 0.07 0.05 0.07 0.11 0.12 0.12 0.12 0.12 0.12 0.13 0.14 0.15 0.15 0.15 0.16 0.16 0.16 0.17 0.17
0.13 0.07 0.12 0.13 0.17 0.15 0.16 0.19 0.14 0.11 0.10 0.10 0.09 0.11 0.13 0.10 0.14 0.16 0.19 0.13 0.15 0.16 0.16 0.15 0.15 0.16 0.12 0.12 0.12 0.12 0.11 0.15 0.13 0.12 0.12 0.11 0.14 0.19 0.20 0.20 0.19 0.18 0.18 0.19 0.18 0.17 0.12 0.14 0.12 0.10 0.08 0.07 0.08 0.10 0.12 0.13 0.11 0.07 0.08 0.10 0.09 0.11 0.11 0.10 0.10 0.07 0.05 0.07 0.06 0.06 0.06 0.06 0.07 0.09 0.09 0.10 0.11 0.11 0.12 0.13 0.14 0.15 0.16 0.16 0.16 0.16 0.16 0.16
0.17 0.12 0.13 0.09 0.14 0.14 0.14 0.17 0.14 0.15 0.10 0.14 0.07 0.12 0.09 0.11 0.12 0.14 0.20 0.11 0.15 0.14 0.16 0.15 0.13 0.10 0.11 0.11 0.11 0.12 0.12 0.12 0.15 0.14 0.12 0.12 0.15 0.17 0.22 0.20 0.20 0.20 0.20 0.18 0.19 0.16 0.12 0.10 0.12 0.11 0.10 0.11 0.12 0.12 0.12 0.12 0.09 0.09 0.08 0.08 0.09 0.09 0.10 0.08 0.06 0.04 0.09 0.06 0.04 0.05 0.07 0.06 0.06 0.07 0.09 0.10 0.11 0.12 0.12 0.13 0.14 0.15 0.15 0.15 0.15 0.15 0.16 0.16
0.11 0.16 0.20 0.20 0.11 0.08 0.09 0.09 0.13 0.10 0.12 0.12 0.10 0.14 0.10 0.09 0.09 0.08 0.15 0.16 0.17 0.16 0.12 0.15 0.13 0.14 0.13 0.11 0.12 0.09 0.10 0.10 0.12 0.10 0.13 0.14 0.14 0.16 0.16 0.19 0.18 0.20 0.19 0.16 0.19 0.13 0.10 0.09 0.11 0.11 0.10 0.12 0.13 0.13 0.12 0.10 0.10 0.09 0.09 0.09 0.08 0.09 0.09 0.07 0.06 0.07 0.08 0.06 0.04 0.05 0.07 0.07 0.07 0.08 0.10 0.11 0.12 0.12 0.12 0.13 0.15 0.15 0.15 0.15 0.15 0.15 0.15 0.16
0.17 0.16 0.16 0.20 0.08 0.12 0.12 0.13 0.14 0.11 0.10 0.10 0.11 0.11 0.09 0.09 0.09 0.11 0.11 0.12 0.15 0.12 0.13 0.08 0.10 0.13 0.14 0.15 0.13 0.10 0.10 0.07 0.07 0.13 0.12 0.12 0.13 0.13 0.12 0.15 0.18 0.20 0.18 0.15 0.16 0.16 0.12 0.11 0.11 0.12 0.10 0.11 0.12 0.12 0.11 0.09 0.09 0.08 0.08 0.09 0.09 0.09 0.08 0.08 0.08 0.08 0.09 0.07 0.08 0.08 0.08 0.08 0.08 0.09 0.11 0.12 0.12 0.13 0.13 0.14 0.15 0.14 0.14 0.15 0.15 0.15 0.15 0.16
0.10 0.09 0.10 0.15 0.14 0.13 0.14 0.14 0.14 0.10 0.08 0.12 0.08 0.10 0.11 0.09 0.09 0.12 0.14 0.11 0.09 0.10 0.14 0.10 0.11 0.14 0.15 0.15 0.14 0.10 0.11 0.12 0.11 0.10 0.14 0.13 0.13 0.14 0.13 0.13 0.12 0.17 0.17 0.14 0.14 0.16 0.11 0.08 0.12 0.11 0.10 0.09 0.11 0.12 0.11 0.09 0.07 0.06 0.08 0.09 0.09 0.09 0.08 0.08 0.08 0.08 0.09 0.08 0.08 0.08 0.08 0.07 0.09 0.11 0.11 0.12 0.13 0.13 0.13 0.13 0.14 0.14 0.15 0.14 0.15 0.15 0.16 0.16
0.17 0.16 0.14 0.10 0.09 0.11 0.12 0.11 0.09 0.08 0.07 0.09 0.08 0.10 0.12 0.10 0.09 0.13 0.13 0.16 0.11 0.10 0.11 0.10 0.12 0.14 0.17 0.15 0.14 0.12 0.15 0.14 0.14 0.14 0.15 0.15 0.11 0.15 0.13 0.13 0.17 0.12 0.14 0.13 0.14 0.14 0.13 0.09 0.12 0.11 0.08 0.07 0.10 0.10 0.10 0.09 0.07 0.07 0.07 0.09 0.08 0.07 0.06 0.07 0.06 0.08 0.07 0.06 0.06 0.07 0.06 0.06 0.08 0.10 0.11 0.12 0.12 0.12 0.12 0.13 0.13 0.14 0.15 0.15 0.15 0.16 0.16 0.16
0.18 0.20 0.19 0.12 0.09 0.13 0.11 0.14 0.14 0.11 0.06 0.10 0.10 0.10 0.09 0.10 0.13 0.15 0.12 0.16 0.16 0.16 0.14 0.13 0.14 0.14 0.14 0.14 0.12 0.13 0.15 0.16 0.16 0.18 0.19 0.20 0.20 0.19 0.20 0.18 0.18 0.15 0.13 0.13 0.15 0.12 0.12 0.11 0.09 0.10 0.07 0.07 0.09 0.10 0.09 0.08 0.07 0.05 0.06 0.07 0.07 0.07 0.08 0.08 0.08 0.08 0.07 0.07 0.06 0.05 0.05 0.07 0.09 0.10 0.10 0.10 0.11 0.12 0.12 0.13 0.13 0.14 0.15 0.15 0.16 0.16 0.17 0.16
Wind_Speed
7 6 6 6 6 6 6 5 5 5 5 5 5 5 4 4 4 4 4 4 5 5 6 7 7 7 8 8 9 9 8 7 6 6 7 7 8 9 10 11 11 11 11 11 10 11 11 12 13 13 13 13 13 14 14 15 14 13 13 15 16 15 15 16 16 16 16 16 18 17 16 16 18 18 18 18 17 15 16 16 16 16 17 16 16 16 17 18
6 5 5 5 5 5 5 5 4 4 4 4 5 5 5 5 5 6 6 6 7 7 8 8 9 9 9 10 10 10 9 8 8 8 8 9 11 11 12 12 12 12 12 12 12 12 13 13 14 14 15 15 15 15 15 15 15 14 14 15 16 16 16 16 16 17 16 17 18 17 17 17 19 19 19 20 20 18 17 18 17 15 16 16 16 17 17 18
5 4 4 4 3 4 4 4 4 4 4 5 5 6 6 7 7 8 8 8 9 9 9 10 10 10 10 11 11 11 10 10 9 9 10 11 12 13 13 13 14 14 13 13 14 14 15 16 17 16 16 16 16 16 16 16 15 16 15 17 18 17 18 17 16 16 17 17 18 19 18 18 20 21 21 20 20 20 20 21 20 17 17 18 18 18 18 19
5 4 3 3 3 3 3 4 4 5 6 6 7 8 8 8 9 9 10 10 10 10 10 11 11 11 11 12 12 12 11 10 10 10 11 12 13 14 14 14 15 15 15 15 15 16 16 17 17 17 16 16 17 16 16 16 16 17 17 18 18 18 19 18 17 17 18 18 19 20 20 19 21 21 22 20 19 22 23 23 21 19 18 19 19 19 20 20
4 3 3 3 3 3 4 4 5 6 7 8 9 9 10 10 10 11 11 11 11 11 12 12 12 12 12 13 13 11 10 10 10 10 12 13 14 15 15 15 15 15 16 16 16 16 17 17 16 16 16 16 17 16 17 18 17 18 19 20 20 19 20 19 19 19 20 20 20 21 21 22 22 21 22 20 20 23 24 24 21 19 19 19 20 20 20 21
3 3 3 3 3 4 5 6 7 8 9 9 10 10 11 11 12 12 12 12 12 12 12 12 12 12 12 12 12 10 9 9 10 11 13 14 15 16 16 16 16 16 16 15 16 16 16 16 16 16 16 16 17 17 19 20 18 19 21 21 21 21 20 20 20 21 21 20 21 22 22 22 20 21 21 19 20 23 24 23 21 20 20 19 20 20 21 20
2 2 3 3 4 5 6 7 8 9 10 10 11 11 12 12 13 13 13 13 13 13 13 12 12 12 11 11 10 10 9 9 11 12 13 15 16 16 16 16 16 15 15 15 16 15 16 16 17 17 16 16 17 17 19 21 19 20 22 21 21 22 21 21 21 21 20 20 22 22 22 22 20 21 21 20 21 22 22 21 20 20 19 19 19 20 20 20
2 2 3 4 5 6 7 8 9 10 11 11 12 12 13 14 14 14 14 13 13 12 12 11 11 10 10 10 9 9 9 10 11 12 14 15 16 16 16 16 15 15 15 15 16 16 16 16 17 17 16 17 17 17 19 20 19 20 21 21 21 22 22 21 21 21 20 20 21 20 20 20 19 19 20 21 21 20 20 20 20 20 19 20 20 20 20 20
3 3 5 5 6 7 8 9 10 11 12 12 13 14 14 14 14 14 13 13 12 11 11 10 10 9 9 9 8 9 9 10 11 13 14 15 15 16 16 15 15 16 16 16 15 16 16 15 16 16 16 18 18 18 19 18 19 20 21 21 21 22 22 21 21 20 20 20 19 18 19 19 19 19 20 21 20 20 19 19 20 20 20 21 21 21 21 21
4 5 6 7 8 9 9 10 11 12 13 14 14 14 13 13 13 13 12 11 11 10 9 9 9 8 8 8 8 8 9 10 12 14 15 15 15 15 15 16 16 16 16 16 15 15 15 15 16 16 17 17 17 18 19 18 19 21 21 21 22 23 23 21 21 20 19 20 18 18 20 21 22 22 22 22 20 20 19 19 21 20 21 22 22 22 22 22
5 6 7 8 9 10 11 11 12 13 14 14 14 13 12 12 12 12 11 10 10 9 9 8 8 8 8 8 7 8 9 11 13 14 14 15 15 16 16 16 15 15 15 15 14 14 14 15 16 16 16 17 18 19 19 18 20 21 20 21 23 23 23 22 21 20 19 20 18 16 19 21 22 22 21 21 20 20 19 19 20 20 21 21 22 22 22 22
7 8 8 9 10 11 12 12 13 13 14 14 13 12 12 12 11 11 10 9 9 8 8 8 8 8 7 7 7 8 10 12 13 14 14 15 15 16 15 14 14 14 14 14 14 14 14 15 16 16 16 17 18 18 18 19 20 20 19 20 22 21 22 22 20 19 18 19 17 15 19 21 22 20 19 19 19 19 18 19 19 19 20 21 21 22 22 22
8 9 10 11 11 12 12 13 13 13 13 13 12 11 11 10 10 10 9 8 8 8 7 7 7 7 6 7 8 9 10 12 13 14 14 15 15 15 15 14 14 13 13 14 15 15 15 16 16 16 17 17 18 18 18 20 19 19 19 19 20 20 20 21 19 17 17 18 18 17 20 21 20 19 17 18 18 17 17 18 18 19 19 20 20 20 21 21
9 10 11 11 12 12 13 13 12 12 12 12 11 10 9 9 10 9 9 8 8 7 6 7 6 6 6 7 8 9 11 13 13 14 15 15 16 16 15 14 14 14 13 14 15 15 15 16 16 16 17 17 18 18 19 19 18 18 18 18 18 18 19 20 17 15 16 19 18 17 19 20 20 19 17 17 17 16 16 17 17 18 18 19 19 19 20 20
10 10 11 11 12 12 12 12 11 11 11 11 10 8 8 9 9 9 9 8 7 6 6 6 6 6 7 7 8 10 12 13 13 14 15 16 16 16 15 15 15 14 14 14 15 15 15 15 15 15 16 16 16 17 18 18 17 16 16 18 17 16 19 19 17 16 16 18 18 17 18 20 20 19 17 17 16 15 16 17 17 17 18 18 19 19 20 20
10 11 11 11 11 11 11 11 10 10 10 10 9 7 8 9 9 9 8 7 6 6 7 6 7 7 6 8 10 11 13 13 13 14 16 17 16 15 15 15 14 14 14 14 14 14 14 14 14 14 15 15 14 14 15 16 16 16 14 16 17 16 17 18 18 18 16 16 18 17 18 20 21 19 17 17 16 15 16 17 17 18 18 18 19 20 20 21
10 10 10 10 10 10 10 10 10 9 9 9 8 7 7 8 9 9 7 6 6 7 7 7 7 6 6 9 11 12 13 13 14 15 17 17 16 15 15 14 14 14 14 15 14 14 14 14 14 14 14 15 14 13 14 15 15 16 14 15 17 17 17 18 19 19 17 16 18 18 18 20 21 18 17 18 17 16 17 17 18 19 19 20 20 20 20 21
9 9 10 10 10 10 9 10 9 8 8 8 7 7 7 7 9 8 7 6 6 7 7 8 8 7 8 11 12 14 14 14 14 16 18 18 15 14 15 14 14 15 14 14 14 14 14 14 13 13 14 15 14 13 13 15 15 16 17 17 19 19 19 20 20 20 18 17 18 18 18 20 20 19 19 19 18 17 18 18 19 19 20 20 20 20 20 20
9 9 10 9 9 9 9 9 9 8 8 8 7 7 7 7 7 8 8 7 6 6 7 9 9 8 9 13 14 14 15 14 14 16 19 18 16 15 14 14 14 14 14 14 14 13 13 14 13 14 15 15 15 14 14 16 17 18 19 19 20 21 21 20 20 20 17 17 19 18 19 20 20 20 20 20 19 18 18 19 19 19 20 20 20 20 20 20
9 9 9 8 8 8 9 9 9 9 8 8 7 7 6 7 7 7 8 8 6 6 6 8 9 9 11 13 15 15 14 14 14 16 19 18 16 15 14 14 14 14 14 13 14 13 12 13 13 13 14 15 16 16 16 17 18 18 19 19 20 20 20 19 19 19 16 17 20 18 18 19 20 21 20 19 19 19 19 19 19 19 19 20 20 20 20 20
8 8 8 8 8 8 9 9 9 9 8 7 7 6 6 6 5 6 6 7 6 7 7 9 10 11 12 13 14 14 13 14 14 17 19 18 15 14 14 14 13 13 14 13 13 13 12 12 13 14 15 16 17 17 17 17 18 18 18 19 19 18 19 19 18 19 17 17 19 18 17 19 20 21 21 20 20 21 20 20 19 19 19 20 20 20 20 20
7 7 7 8 8 9 9 9 8 9 8 6 6 6 5 5 5 5 5 5 6 8 9 10 11 12 13 13 13 12 12 14 15 17 19 18 15 13 14 13 12 12 14 13 13 13 12 12 14 16 16 17 17 17 16 16 17 18 18 17 18 18 18 18 19 19 18 17 19 19 18 20 21 21 21 21 21 21 20 19 19 19 19 19 19 19 20 20
6 7 7 8 8 9 9 8 7 8 7 6 6 5 5 5 5 5 5 5 6 8 10 11 12 13 14 13 13 13 12 14 15 17 19 18 15 13 13 13 12 12 13 13 12 12 12 13 16 17 17 17 17 17 16 16 16 17 17 17 18 19 18 18 19 19 19 19 19 19 19 21 22 21 22 21 20 20 20 19 19 19 19 19 19 19 19 19
6 7 8 8 9 9 8 7 7 7 6 6 6 5 5 6 5 5 5 5 6 8 10 11 11 13 14 13 14 13 12 13 14 16 17 17 15 13 12 12 12 13 14 14 12 10 12 15 16 17 17 16 15 16 16 16 17 18 17 17 18 19 19 19 20 21 20 20 19 18 20 22 22 21 22 21 20 19 19 18 18 18 18 18 18 18 18 18
6 7 8 8 8 9 7 6 6 6 6 6 6 6 6 6 6 5 5 6 7 9 11 11 11 13 13 14 15 12 10 12 14 14 16 16 15 13 12 13 12 14 15 15 12 12 14 16 16 17 17 16 15 16 16 16 18 19 18 17 17 19 20 21 21 21 21 21 21 19 20 22 21 21 21 21 20 19 18 17 17 17 17 17 17 17 18 18
7 7 8 8 8 8 6 5 6 6 6 6 7 7 6 6 6 4 5 6 7 10 11 11 11 12 13 14 14 11 9 12 13 14 15 16 14 12 13 14 13 14 15 14 13 14 16 18 17 16 17 16 15 16 17 17 18 19 18 17 18 19 21 22 22 21 21 22 22 20 20 22 21 21 21 20 19 19 18 16 16 16 16 17 17 18 19 19
6 7 8 8 8 8 6 6 6 6 6 6 7 7 7 6 5 4 5 6 8 10 11 11 11 12 13 14 14 10 9 12 13 14 16 17 16 13 13 15 15 15 14 14 15 16 17 19 18 17 16 16 16 17 18 17 17 18 19 19 20 22 22 22 22 22 22 22 22 22 22 22 21 21 20 19 18 18 17 16 16 17 17 18 18 19 19 19
6 7 9 9 8 8 6 6 6 6 6 7 7 7 7 6 4 4 5 6 8 9 9 10 10 11 12 12 13 11 9 12 13 14 16 17 17 14 13 16 15 16 16 14 16 17 17 18 18 17 16 16 17 19 19 17 18 20 20 21 22 23 23 23 22 22 22 22 23 22 20 21 21 20 19 18 18 17 17 17 17 18 19 19 19 19 19 19
6 7 9 10 8 7 7 6 6 6 7 7 7 7 6 5 4 5 6 5 7 9 9 9 9 11 12 12 12 12 11 12 12 14 16 18 19 16 13 16 17 16 17 15 15 16 16 16 16 15 15 17 18 20 19 18 19 22 22 23 23 23 22 21 20 20 20 20 22 22 20 19 20 19 19 19 18 18 18 18 19 19 19 19 19 19 19 19
6 7 9 10 8 7 7 7 7 7 7 7 7 6 5 5 5 5 6 6 7 8 8 9 9 10 12 11 12 13 12 13 14 14 16 17 20 19 15 16 18 16 17 17 16 16 16 16 15 15 16 18 19 21 20 19 20 23 23 23 23 22 20 19 18 17 17 19 20 20 18 18 19 19 19 19 19 19 18 18 19 19 19 18 18 18 18 19
6 7 9 10 8 7 7 7 8 7 7 7 6 5 4 5 6 5 5 6 6 8 8 8 9 10 12 11 12 14 13 14 16 15 15 17 19 20 17 17 18 17 17 18 17 17 17 16 16 16 17 19 19 21 21 20 20 21 22 22 23 22 20 19 18 16 16 18 19 18 17 16 18 18 19 20 21 19 18 17 18 18 17 17 17 18 18 19
7 7 9 9 8 8 7 7 7 7 7 6 5 4 4 5 7 5 5 7 6 7 8 8 9 10 12 12 13 14 14 15 17 15 15 16 17 19 18 18 19 18 18 18 18 18 17 16 17 18 19 19 20 21 21 20 20 21 21 21 21 21 20 19 18 17 17 18 19 19 19 17 18 18 19 19 19 19 17 16 16 16 16 16 17 18 19 20
6 7 8 9 8 8 7 7 7 7 6 5 4 5 5 5 6 5 6 6 5 6 7 7 9 11 12 12 14 15 14 15 17 17 16 16 17 18 18 19 20 19 18 19 19 18 17 17 18 19 19 19 20 21 21 21 21 22 22 21 20 19 19 19 19 19 18 19 21 21 19 18 18 17 16 16 17 18 17 15 15 15 16 16 17 18 19 20
6 6 7 8 8 8 8 7 7 6 5 5 4 5 6 6 4 5 6 6 6 7 8 8 11 12 12 12 13 15 15 16 17 17 17 17 18 19 19 20 20 19 18 18 18 18 17 18 19 20 19 20 21 20 20 20 21 22 21 19 19 18 18 18 18 19 19 20 22 21 17 15 16 15 15 15 16 17 16 14 14 15 15 16 17 18 19 20
5 6 6 7 8 8 8 7 6 5 5 5 6 6 6 5 4 5 5 5 6 8 9 10 11 12 13 13 14 16 15 16 17 17 17 18 18 19 19 19 20 19 18 18 17 17 17 18 18 19 18 19 22 21 20 20 21 21 20 19 20 20 17 18 18 18 19 20 19 16 14 14 15 15 15 15 15 15 14 14 13 14 15 16 17 18 19 21
4 5 6 7 8 8 8 7 6 5 5 5 7 6 5 4 3 4 5 6 7 9 10 11 12 13 14 15 15 17 16 16 17 17 17 17 18 18 19 19 20 20 19 18 17 17 18 18 18 19 19 20 21 21 21 21 20 20 20 20 21 19 15 17 19 19 17 17 15 14 14 15 14 15 15 14 14 15 14 14 14 14 15 16 18 20 21 22
4 5 6 8 8 8 7 7 6 5 6 7 6 6 5 4 4 4 6 7 8 9 10 11 12 13 15 15 16 18 18 17 17 18 17 17 18 18 19 19 20 20 19 18 17 17 17 18 19 19 20 20 20 20 21 21 20 19 20 21 21 17 15 17 18 18 16 14 14 13 13 14 13 13 14 13 14 14 14 15 15 15 17 18 20 22 23 23
4 5 6 8 9 8 7 7 6 6 7 8 7 6 6 5 5 5 7 8 8 10 12 12 12 13 14 15 16 18 18 17 18 18 17 17 18 18 18 19 19 20 20 18 17 17 17 18 19 19 20 21 20 19 21 22 20 19 19 21 20 17 17 18 17 16 15 14 15 14 13 13 12 12 13 13 13 14 15 15 16 17 19 21 22 23 24 24
4 5 6 8 9 8 7 7 7 8 8 8 7 6 6 6 6 7 8 9 9 10 12 12 13 14 15 15 16 18 18 17 17 17 16 17 18 17 18 19 19 20 21 18 17 17 17 17 18 20 21 20 20 19 20 20 21 20 20 21 20 16 17 18 16 14 13 13 14 15 14 13 12 13 12 13 14 14 15 17 18 20 21 22 24 24 24 25
4 5 6 8 8 7 8 9 9 9 8 7 6 6 6 6 7 8 9 9 10 11 12 13 14 14 15 16 16 17 17 16 17 17 16 17 18 17 18 18 18 20 20 18 17 18 18 16 18 21 21 20 20 20 19 18 20 21 21 21 20 18 18 17 15 13 12 12 13 14 15 14 14 14 13 13 14 15 16 18 20 21 23 24 25 25 25 26
5 5 6 8 8 6 7 10 10 9 8 8 7 7 7 7 8 9 10 10 11 12 12 12 13 14 15 16 16 16 17 16 16 16 16 17 18 17 18 18 17 18 19 18 18 19 18 17 18 21 21 20 20 19 18 18 19 19 20 20 19 19 18 17 15 14 13 12 12 13 15 16 16 14 13 14 16 17 18 20 21 23 24 24 25 25 26 28
7 6 6 8 8 7 8 9 8 8 8 8 8 8 8 8 9 10 11 12 12 13 13 13 14 15 15 15 16 16 16 16 16 16 16 17 17 17 18 18 17 17 17 17 18 18 17 17 19 20 20 19 19 19 18 19 19 19 19 19 18 18 17 15 14 15 14 14 14 13 14 16 16 15 15 16 17 18 20 21 22 23 23 24 25 27 28 29
8 7 7 9 8 8 10 9 8 9 8 7 8 8 9 9 10 11 12 13 13 13 14 14 14 15 15 15 15 16 16 15 16 16 16 16 16 16 17 18 18 17 17 17 18 19 17 17 19 20 19 19 19 19 19 19 19 20 20 19 18 17 16 15 14 14 14 14 14 14 15 16 17 17 18 18 18 20 21 22 22 23 24 25 27 28 30 31
9 9 9 10 9 8 9 8 7 8 8 8 9 9 10 10 11 11 12 13 13 13 14 15 15 15 15 15 15 15 16 15 15 16 16 16 16 17 17 17 17 17 17 17 17 18 18 17 18 19 19 20 20 20 20 20 20 19 19 19 18 17 17 16 15 14 14 14 14 14 16 17 19 19 19 19 20 22 23 23 23 24 26 27 28 30 31 33
9 9 10 12 12 10 9 8 8 8 8 8 9 10 10 11 11 11 12 13 14 14 14 15 15 14 15 16 15 16 16 15 16 16 17 17 17 17 16 16 17 17 17 16 17 18 17 17 18 17 18 19 20 20 20 21 20 19 19 19 18 17 16 15 14 14 14 15 15 15 17 20 21 20 20 21 22 23 24 24 24 25 26 28 29 31 32 34
8 8 9 11 13 12 11 9 9 9 8 9 10 11 11 11 11 12 13 14 15 15 14 15 15 15 16 17 16 16 17 16 16 16 17 17 17 16 16 16 16 16 16 16 17 17 17 17 17 16 16 17 18 18 19 20 20 20 19 18 17 16 15 13 13 13 14 16 18 17 18 21 22 21 21 23 23 23 24 24 25 26 27 28 30 31 33 33
8 7 7 8 10 11 11 11 11 10 9 9 10 11 11 12 12 13 14 14 15 16 15 15 16 15 16 16 16 16 17 17 17 17 17 17 17 17 16 15 16 16 16 16 17 17 17 17 17 16 16 17 17 18 19 19 18 18 18 18 16 14 13 13 13 14 14 15 18 18 18 21 23 22 22 23 23 23 24 24 25 27 28 29 31 32 33 34
9 8 8 8 9 9 9 10 11 11 11 11 11 11 12 13 13 14 14 15 16 16 15 15 17 17 16 16 16 16 17 18 17 17 16 17 17 17 17 15 16 16 16 16 17 16 16 16 16 17 18 18 17 17 18 18 18 17 17 17 16 13 12 12 13 14 13 14 17 20 20 22 24 23 22 22 22 22 23 24 26 28 29 30 32 33 34 35
10 9 9 10 10 9 9 10 11 12 12 12 12 12 13 13 14 14 15 16 16 17 16 16 17 18 17 16 16 16 17 17 17 17 16 16 16 16 16 15 15 16 17 17 17 16 16 16 16 17 18 19 18 18 19 19 18 17 16 16 14 13 12 13 14 14 14 16 19 21 22 23 23 22 22 22 22 22 24 25 27 28 30 31 33 34 36 37
9 9 10 11 11 10 10 10 11 12 12 12 13 13 13 13 14 15 16 16 16 17 17 16 16 17 17 16 16 16 16 15 16 16 15 16 16 16 15 15 15 17 18 17 17 17 16 17 17 17 18 19 18 19 20 20 17 16 15 14 14 14 14 14 15 15 16 19 21 21 23 23 21 21 22 23 22 23 25 27 28 29 30 32 34 36 37 38
10 10 11 11 11 11 11 11 11 11 12 13 13 13 14 14 14 15 16 16 16 16 16 16 17 18 17 17 17 16 16 16 16 16 15 15 15 15 15 15 15 16 18 17 17 17 17 17 18 18 18 18 18 19 21 21 17 16 16 14 14 15 15 15 15 16 17 20 22 22 22 22 22 22 23 24 24 25 26 28 29 30 32 34 35 37 39 40
12 11 11 11 11 11 11 11 12 12 12 13 13 13 14 14 14 15 16 17 16 16 16 16 17 18 18 18 17 16 16 16 16 16 15 15 15 15 15 15 14 15 16 16 17 17 17 17 18 18 17 18 19 20 22 21 17 16 16 15 14 15 15 16 17 17 18 20 22 22 22 22 23 24 25 26 26 26 27 29 30 32 33 34 36 38 40 40
Wind_Direction
106 97 89 83 78 73 69 66 62 57 53 47 40 32 23 15 5 352 338 325 315 309 305 305 304 306 309 309 309 308 305 296 291 293 286 284 289 293 296 297 298 298 297 293 289 288 286 282 280 277 275 275 273 272 271 270 269 272 272 268 272 274 273 273 273 274 274 275 273 273 276 271 273 277 278 284 287 284 286 286 282 281 279 272 263 255 253 255
110 102 92 82 74 69 63 57 52 46 38 28 19 9 360 354 348 341 332 323 315 310 307 305 305 306 306 308 307 306 301 291 290 291 284 286 292 295 297 297 297 297 296 293 288 287 285 281 283 282 277 273 272 271 270 270 267 271 273 271 274 275 275 276 272 274 278 277 276 277 278 275 275 276 279 283 286 287 287 284 280 278 276 270 263 259 257 257
106 100 92 79 67 58 48 38 28 20 12 3 356 349 343 337 332 330 326 321 315 310 307 304 303 303 304 306 306 305 298 291 290 287 285 292 297 298 298 298 296 296 294 291 287 286 284 282 283 284 279 274 273 271 270 272 270 271 273 275 277 276 278 278 273 273 277 277 277 279 281 284 285 283 281 280 286 289 284 281 279 274 271 268 265 261 260 260
96 89 80 66 49 32 19 9 1 353 348 344 340 336 332 327 323 320 318 316 313 309 306 303 302 302 302 304 305 303 297 295 292 285 288 295 300 300 299 298 296 295 292 290 288 286 285 284 284 284 282 279 278 276 271 271 273 274 272 274 278 277 278 278 274 274 276 278 276 277 282 285 287 289 284 278 284 286 282 281 276 268 266 266 265 263 262 263
84 74 59 42 23 7 355 347 342 337 334 331 327 325 323 321 318 315 313 310 308 307 305 303 302 301 301 303 305 303 299 297 291 288 294 298 301 301 300 299 296 295 293 291 290 289 287 286 286 286 284 282 283 282 276 271 271 276 274 273 275 277 278 276 274 277 277 278 278 278 282 281 282 291 289 283 281 278 279 281 274 266 265 264 264 264 266 267
69 52 35 16 2 350 342 336 332 329 327 324 321 319 317 314 313 311 309 308 307 306 305 303 302 301 300 302 303 302 298 293 293 297 299 301 304 303 301 299 298 297 295 293 291 290 290 289 288 285 283 282 281 279 278 275 270 275 279 276 274 277 278 275 276 280 279 279 279 279 279 279 281 287 289 287 281 277 279 280 274 269 268 266 266 267 269 271
44 22 7 354 346 339 335 331 327 325 323 321 319 316 314 311 310 309 308 307 306 305 304 303 303 302 301 303 303 304 300 295 298 302 302 306 307 304 303 300 300 299 296 294 291 290 291 291 288 283 281 281 279 277 279 280 274 273 280 281 278 279 279 276 277 280 280 280 279 279 280 281 280 280 284 286 281 279 279 278 275 273 272 270 270 271 272 272
359 349 342 338 336 333 331 328 325 324 322 321 318 315 313 311 310 308 307 305 304 304 303 303 303 302 303 304 304 307 305 300 303 305 307 310 308 306 305 301 301 300 297 293 290 291 290 290 289 287 286 283 284 283 284 286 282 278 281 283 281 281 280 278 278 278 278 278 279 283 284 282 279 278 282 283 281 279 277 277 276 275 274 273 273 273 272 272
330 326 326 329 330 328 327 326 325 323 322 320 318 316 314 312 311 309 307 304 303 303 303 304 303 302 304 305 308 309 304 303 307 311 313 312 309 309 307 303 302 301 298 294 293 292 289 289 291 291 290 288 290 290 289 286 283 282 283 285 285 283 282 279 280 279 278 278 279 283 281 277 278 279 283 282 279 277 276 277 277 275 276 276 275 274 273 273
320 318 319 322 324 323 323 323 323 322 321 320 319 318 316 315 315 312 309 306 305 304 303 304 302 303 305 306 312 307 303 308 312 313 314 313 312 311 308 306 304 302 300 297 297 296 291 290 290 291 290 290 292 291 289 283 282 285 286 287 286 285 283 279 278 278 278 279 276 276 277 279 281 278 278 278 276 274 276 278 277 275 276 276 275 275 274 274
316 316 316 317 319 318 319 320 320 321 321 321 321 319 318 318 319 317 314 311 309 306 305 303 302 305 305 309 314 305 307 314 314 314 314 315 316 313 309 307 306 303 302 299 297 297 294 292 292 293 290 291 293 293 291 286 287 289 290 291 288 288 286 280 277 274 277 279 273 272 278 285 287 280 274 274 275 274 275 278 278 277 277 276 275 275 275 276
314 316 316 316 316 316 318 319 320 321 322 323 323 321 320 322 323 323 321 319 317 312 308 306 305 306 307 315 317 308 312 318 317 317 317 318 318 315 309 307 307 304 302 300 297 296 296 295 297 294 290 292 294 294 293 291 293 292 292 291 289 292 289 283 278 272 276 277 268 272 281 285 285 278 274 273 274 275 277 279 279 279 278 277 276 276 276 277
313 316 317 316 316 315 317 317 319 321 323 324 324 323 325 327 329 329 326 325 324 320 315 312 309 310 312 315 314 312 316 320 320 321 320 320 318 316 311 308 308 306 303 302 298 297 297 296 296 292 291 294 293 292 292 293 293 291 292 289 289 295 291 289 284 275 280 275 266 272 278 280 280 274 272 273 273 276 280 281 280 280 278 278 277 276 277 277
313 315 316 317 317 316 316 316 316 320 324 326 325 326 329 333 335 332 328 326 325 325 323 321 317 320 322 314 313 318 320 321 322 322 322 322 321 318 314 311 310 308 307 305 302 300 299 297 297 294 293 293 292 294 296 295 292 290 292 291 291 292 291 295 293 282 284 277 272 277 277 276 277 274 272 274 275 276 281 282 280 279 278 278 277 276 277 276
314 316 317 318 318 316 317 316 316 319 324 327 328 329 333 337 340 337 333 332 331 329 326 328 325 326 328 319 316 320 322 323 323 324 324 324 323 320 318 315 311 309 309 309 306 305 303 301 300 299 298 297 297 300 300 298 296 294 294 293 294 290 289 296 294 285 281 278 279 280 277 277 276 275 275 275 277 277 279 280 279 278 278 277 277 276 276 275
316 317 318 318 319 318 319 320 320 321 324 329 331 333 336 341 344 341 339 340 342 338 333 333 330 329 330 324 322 324 326 325 323 325 328 326 321 319 319 316 313 312 310 310 310 307 306 305 303 302 302 302 303 304 304 303 301 299 295 291 293 292 292 294 294 290 282 279 285 282 275 278 278 277 278 277 277 277 278 278 278 278 278 277 277 276 274 274
316 318 319 319 321 321 323 325 325 324 327 330 332 333 338 345 347 344 339 338 344 346 345 340 333 332 330 327 327 326 326 324 323 328 330 327 321 318 320 318 315 315 311 310 311 309 309 307 305 305 306 305 303 305 305 303 300 299 298 294 291 290 292 292 291 293 291 285 286 284 277 277 279 279 278 278 277 277 277 276 277 277 277 277 276 275 274 274
316 318 320 321 323 324 326 330 330 329 330 329 330 330 331 340 349 352 346 334 334 343 346 342 340 334 325 328 330 326 325 325 324 328 329 327 323 319 318 316 316 317 313 310 309 309 309 308 309 309 311 310 309 309 302 296 294 294 296 296 293 291 291 290 288 289 292 287 283 283 280 278 280 280 279 279 278 277 277 276 276 277 276 276 276 276 275 274
315 318 321 323 327 328 330 333 332 331 330 328 329 326 323 329 342 355 358 355 348 344 340 338 342 334 321 326 330 326 326 326 323 327 331 330 325 321 319 316 316 318 316 314 313 310 311 314 316 314 311 307 306 305 296 291 292 291 292 293 292 292 292 291 289 288 289 288 284 282 280 279 281 282 281 280 279 278 278 277 277 277 277 276 276 276 275 275
315 319 323 327 331 331 331 331 330 328 327 326 326 326 324 326 332 340 353 3 -0 356 351 341 341 337 327 328 331 330 330 330 327 330 335 332 326 326 326 322 319 321 320 317 315 313 316 320 316 309 304 301 301 300 297 296 296 296 297 296 294 294 294 293 291 290 288 288 288 284 282 283 283 283 281 279 279 279 278 278 278 277 277 276 275 275 275 275
319 323 327 331 332 330 329 328 328 328 326 325 327 328 322 324 328 326 341 354 349 354 354 343 343 341 333 331 333 334 335 334 333 337 339 336 332 330 330 329 327 327 323 319 318 319 323 323 314 306 304 305 303 301 303 305 304 302 300 299 300 296 294 294 292 291 291 290 288 286 286 286 285 285 283 280 280 280 278 278 278 277 277 276 275 274 273 273
325 328 332 333 330 328 328 327 329 331 331 330 333 335 327 326 327 319 332 344 340 348 348 341 346 345 338 336 336 336 337 337 336 340 343 342 341 337 334 337 337 331 328 330 329 327 327 322 314 312 311 312 310 309 312 313 309 306 303 301 301 298 295 296 295 294 294 291 287 286 287 286 286 287 287 286 285 282 280 278 277 276 275 274 272 272 271 272
332 334 335 332 330 330 329 329 332 337 339 338 340 338 331 329 328 324 334 338 334 343 346 343 345 345 341 340 340 339 340 339 336 339 345 345 344 341 340 342 341 336 336 336 334 332 328 318 314 316 318 316 314 317 319 316 311 310 309 305 299 299 300 297 296 296 295 293 287 286 287 285 286 288 289 289 287 284 282 280 278 276 274 272 271 271 270 270
337 338 336 332 332 332 330 330 334 339 342 345 346 338 330 331 327 322 330 335 332 336 342 342 341 343 342 340 341 339 338 343 341 341 348 350 346 343 342 341 342 341 336 335 336 338 328 317 319 323 321 319 317 320 322 317 314 310 309 307 300 299 299 294 295 297 297 296 289 287 288 284 283 285 286 287 287 286 283 280 279 277 275 274 272 271 271 270
340 341 339 338 338 335 333 334 336 338 339 342 342 335 332 330 324 318 326 335 333 332 338 340 339 343 342 341 342 338 338 347 349 346 349 354 349 344 342 339 341 340 335 337 339 336 328 324 327 327 323 324 323 320 320 317 315 311 308 305 300 299 299 296 299 300 297 293 287 285 287 286 284 282 282 285 288 287 284 281 278 276 274 272 271 271 273 273
345 346 346 345 342 341 339 335 335 336 337 337 336 335 333 328 324 319 329 339 333 332 339 339 340 343 344 346 346 344 347 348 350 352 353 353 349 345 343 338 339 338 332 334 335 329 329 330 332 330 326 328 326 319 318 318 318 313 307 304 302 302 301 298 299 299 294 291 288 284 285 287 286 283 282 284 286 285 285 282 277 273 271 271 272 273 274 275
351 353 352 348 345 346 343 333 335 337 338 335 334 337 333 328 327 320 333 343 335 335 340 340 343 347 348 350 352 357 353 343 347 355 356 353 348 346 345 340 338 336 330 334 334 328 329 331 333 333 331 330 327 322 319 320 319 311 307 310 308 305 302 298 297 294 292 292 291 286 283 286 286 284 283 283 284 284 283 282 277 273 273 273 274 275 275 275
351 353 353 349 345 348 343 334 338 342 339 334 335 338 333 332 329 328 345 343 332 338 342 342 346 351 352 354 1 7 354 345 349 350 352 355 350 345 344 343 339 331 330 337 333 328 332 333 332 333 333 330 326 321 318 320 317 308 308 312 309 303 299 297 296 294 294 295 294 290 284 285 290 288 285 284 283 282 280 280 279 276 276 276 276 276 276 275
347 349 350 348 345 346 346 343 344 343 338 335 337 336 335 343 338 339 350 338 334 343 344 347 350 351 354 356 1 3 354 350 352 346 349 355 352 346 340 343 342 333 334 340 334 329 331 331 328 330 332 327 322 319 317 316 313 310 312 312 309 306 303 300 298 297 298 296 293 292 284 282 289 288 284 284 284 282 281 282 280 277 277 278 277 278 278 279
341 343 347 347 344 342 343 345 344 341 337 337 336 336 343 351 346 351 352 339 342 347 345 353 355 351 356 356 354 356 353 349 349 349 351 354 356 353 342 341 345 340 339 342 339 332 330 328 328 329 328 323 320 320 318 315 315 316 318 315 313 313 311 309 305 303 303 298 296 297 290 284 288 286 283 284 285 284 283 285 284 281 279 279 279 281 281 283
336 340 346 348 346 342 340 339 338 337 337 336 336 342 352 353 356 13 0 340 345 350 351 355 354 354 358 357 352 351 349 346 346 350 350 348 353 353 346 341 341 340 340 341 339 335 334 332 329 327 325 325 324 324 324 324 324 323 320 318 318 317 317 316 313 311 307 300 299 304 301 292 289 287 285 287 290 290 286 285 286 283 282 282 283 285 285 287
334 339 346 350 349 346 343 338 336 337 338 340 345 351 359 2 7 12 352 344 351 355 355 352 349 352 353 355 354 347 345 345 345 349 348 346 348 350 349 345 340 340 340 339 338 337 336 331 328 327 327 331 331 329 330 330 329 327 324 325 324 319 319 318 314 312 305 297 299 305 304 297 292 290 290 292 295 296 292 285 282 282 283 285 287 288 289 290
334 341 348 352 352 351 348 342 341 343 343 350 2 3 16 21 9 359 353 357 2 356 355 351 346 346 349 355 352 346 345 344 345 347 346 346 347 347 349 347 345 343 337 336 339 339 336 330 331 333 330 334 337 335 333 330 329 330 329 330 328 323 321 316 311 312 306 299 302 305 302 297 295 295 293 294 297 300 296 285 280 282 283 287 289 291 293 294
338 346 350 356 359 357 355 349 348 354 360 11 15 11 26 30 7 5 7 2 2 357 354 351 347 347 353 355 349 346 347 342 344 347 344 344 346 344 344 345 346 345 339 338 339 340 337 331 332 335 332 334 337 335 332 330 329 329 328 331 332 328 321 314 312 312 307 303 306 309 304 297 297 298 294 295 300 304 302 292 287 289 289 292 295 295 296 296
346 351 357 1 2 1 2 1 2 10 18 29 29 24 34 31 9 19 13 356 360 358 348 348 354 354 353 350 347 348 347 340 343 348 345 345 344 342 343 342 343 344 342 341 338 339 339 330 328 333 335 335 335 332 332 334 333 329 331 334 331 326 319 313 311 309 307 308 310 312 307 300 300 300 298 300 304 306 307 303 299 298 297 298 299 298 299 299
358 3 8 5 2 3 8 11 14 17 25 36 33 30 40 40 26 28 14 1 2 355 348 350 356 356 350 347 347 347 346 341 342 345 345 345 344 343 342 341 343 346 344 342 339 339 341 334 330 337 339 336 335 332 333 337 335 333 336 335 328 324 324 322 317 315 318 317 313 313 311 307 308 305 301 303 304 305 307 307 304 302 301 301 301 301 301 301
13 15 15 9 8 10 13 19 22 26 36 42 40 42 50 45 34 26 9 3 359 354 357 356 353 352 349 346 346 345 345 344 343 345 344 343 344 344 343 341 344 347 344 343 341 339 341 337 334 340 340 334 334 334 335 339 340 340 338 334 331 331 333 332 324 322 328 323 315 315 312 310 312 309 306 304 302 302 303 304 304 303 303 303 302 302 302 303
23 25 23 17 17 18 17 23 29 39 47 45 47 53 54 41 28 19 8 3 358 357 1 357 350 351 350 347 344 343 346 346 344 345 345 344 343 346 346 341 342 346 345 345 344 340 342 339 336 342 341 335 337 340 338 339 343 346 341 337 339 337 332 333 330 326 328 324 319 320 318 315 311 308 308 305 302 303 303 304 304 302 301 302 303 303 303 304
32 36 31 21 23 26 27 35 41 47 49 47 50 54 49 37 22 15 9 3 359 359 360 354 349 350 350 349 345 343 346 346 344 345 347 345 344 346 348 343 341 344 345 347 346 341 343 342 337 340 342 339 341 343 341 340 342 345 344 341 343 340 332 332 331 327 326 324 322 323 324 321 312 310 311 306 304 304 304 305 304 301 300 301 304 305 304 305
46 49 35 20 24 32 40 48 47 45 47 51 58 52 42 34 18 10 8 3 359 358 356 351 350 350 348 348 347 345 346 345 345 347 347 346 345 346 347 347 343 343 344 349 349 344 344 343 338 339 344 345 344 343 343 343 343 346 346 344 342 340 337 336 333 329 328 325 323 323 323 318 314 316 315 309 308 306 304 306 306 303 302 304 306 307 307 308
55 53 33 22 27 36 47 50 44 43 50 53 52 44 35 30 18 9 5 2 359 357 355 352 352 350 348 348 347 346 347 346 347 350 348 348 349 347 346 348 346 344 347 350 349 347 346 345 341 341 345 347 344 342 344 345 346 348 347 345 344 342 343 342 335 332 331 327 321 319 319 316 316 318 315 312 312 310 307 307 307 306 305 306 308 308 309 310
59 54 33 25 31 49 59 51 40 44 52 49 43 38 31 24 16 8 3 1 360 356 355 354 352 351 349 348 347 348 349 348 349 351 350 349 350 346 345 347 346 346 349 348 346 346 347 348 346 343 345 346 343 343 346 347 350 353 350 347 346 345 346 343 332 328 329 326 321 319 318 317 317 317 314 313 312 313 312 311 310 309 308 308 309 309 310 310
62 57 41 32 40 64 67 53 40 43 47 43 38 33 26 20 14 8 4 3 360 356 355 353 352 352 350 349 350 350 351 350 350 351 351 350 349 345 345 348 348 349 351 349 347 348 349 350 349 346 347 349 347 347 349 350 353 354 350 350 349 345 343 338 328 327 327 324 324 325 320 317 317 314 313 313 313 313 313 313 312 311 311 311 310 310 311 311
66 60 49 41 47 65 65 56 51 48 42 38 35 28 21 18 15 9 4 2 359 357 356 353 353 353 350 351 353 350 351 354 352 352 353 352 349 347 347 349 351 353 352 351 350 350 350 349 351 351 351 352 353 352 351 350 352 353 351 352 352 349 347 342 338 337 331 323 325 325 318 316 317 315 314 314 314 313 312 311 312 311 311 311 311 311 312 312
65 59 52 47 52 62 63 63 64 54 42 40 34 26 21 17 13 9 5 2 360 358 357 353 353 354 352 353 354 352 354 355 351 351 353 352 349 347 348 348 351 353 353 351 351 352 352 351 355 358 355 352 351 349 348 347 349 351 353 353 353 352 351 349 346 344 334 326 326 321 314 316 319 318 315 314 314 313 312 311 311 310 310 311 312 313 313 314
64 58 53 50 53 59 61 60 60 53 44 41 32 23 23 17 9 7 5 3 0 360 359 355 355 357 356 358 358 355 354 354 353 354 354 350 348 348 349 348 349 352 353 353 353 354 356 354 356 359 355 349 346 343 345 348 347 347 349 350 352 353 356 359 354 343 335 332 327 319 316 320 320 318 316 315 315 313 312 312 312 312 313 313 313 314 315 315
66 62 59 56 53 53 52 48 48 45 39 39 32 23 21 16 8 7 5 2 1 1 1 0 1 0 358 360 359 355 352 354 356 357 353 349 348 349 349 348 349 351 353 354 354 357 359 355 354 356 351 347 345 342 343 347 346 345 347 348 349 353 359 2 351 339 340 340 330 324 326 325 321 321 319 317 316 315 314 315 314 315 314 314 314 315 316 316
66 66 63 63 57 51 48 44 45 45 38 36 33 24 20 16 11 7 4 2 2 3 3 1 1 1 359 360 360 356 354 355 355 354 353 350 349 351 351 349 349 352 355 355 355 359 1 354 352 355 350 346 346 344 344 347 347 347 347 345 347 353 355 351 341 337 342 338 328 327 328 323 321 325 323 319 318 318 317 316 316 316 315 315 316 317 317 317
72 69 59 59 60 59 54 47 46 46 38 33 30 24 20 18 12 6 4 5 3 2 5 3 358 356 356 358 1 359 355 356 354 351 352 352 350 352 353 350 349 353 356 356 354 358 360 353 352 355 351 347 347 347 350 352 348 346 347 345 348 351 347 342 339 338 336 329 325 327 325 321 324 327 323 321 320 319 319 318 317 317 316 316 317 318 317 317
74 71 65 63 59 55 51 45 45 43 34 29 28 21 18 17 12 6 6 9 5 2 5 4 357 354 355 358 3 359 353 354 353 348 352 355 351 351 353 351 350 352 355 357 354 356 358 354 353 357 354 350 350 350 352 351 346 345 348 347 348 347 344 343 341 339 337 331 329 329 326 325 329 329 324 323 323 321 320 319 318 318 318 318 318 318 318 317
76 76 74 68 54 45 45 42 42 41 30 25 25 20 16 14 11 9 8 8 8 5 4 3 358 357 359 2 3 356 351 352 350 346 350 353 351 351 352 352 353 353 353 355 355 356 358 355 355 360 357 350 352 353 351 350 350 350 350 347 346 345 344 344 342 339 338 335 332 331 329 329 333 332 328 326 324 321 320 319 320 320 320 320 320 319 319 318
76 71 67 62 51 43 43 39 37 37 30 23 22 19 16 12 10 12 11 7 8 8 5 3 2 2 2 0 358 354 351 351 348 346 348 349 348 348 348 349 353 353 353 355 355 355 360 358 355 359 355 349 352 353 350 354 359 355 350 349 347 345 343 342 338 334 334 335 333 331 329 329 332 332 330 327 325 322 321 321 322 322 321 321 320 320 320 319